Jaffrey, NH

4:14 AM EDT on April 23, 2017 (GMT -0400)
Jaffrey Airport-Silver Ranch

Weather History for KAFN - February, 2014

Change the Weather History Date:

Monday, February 24, 2014

  Actual Average Record
Temperature  
Mean Temperature 27 °F -  
Max Temperature 36 °F 33 °F 64 °F (2017)
Min Temperature 18 °F 15 °F -14 °F (2015)
Degree Days  
Heating Degree Days 38    
Moisture  
Dew Point 11 °F    
Average Humidity 57    
Maximum Humidity 75    
Minimum Humidity 38    
Precipitation  
Precipitation 0.00 in - - ()
Sea Level Pressure  
Sea Level Pressure 29.78 in    
Wind  
Wind Speed 9 mph (WNW)    
Max Wind Speed 17 mph    
Max Gust Speed 28 mph    
Visibility 6 miles    
Events Snow    
Averages and records for this station are not official NWS values.
T = Trace of Precipitation, MM = Missing Value Source: NWS Daily Summary

Daily Weather History Graph

Daily Weather History Graph

Search for Another Location

Airport or City:

Trip Planner

Search our weather history database for the weather conditions in past years. The results will help you decide how hot, cold, wet, or windy it might be!

Date:

Astronomy

Feb. 24, 2014 Rise Set
Actual Time 6:31 AM EST 5:31 PM EST
Civil Twilight 6:03 AM EST 5:59 PM EST
Nautical Twilight 5:30 AM EST 6:32 PM EST
Astronomical Twilight 4:57 AM EST 7:05 PM EST
Moon 2:32 AM EST (2/24) 12:24 PM EST (2/24)
Length of Visible Light 11h 56m
Length of Day
10h 59m
Waning Crescent, 28% of the Moon is Illuminated
Feb 24
Waning Crescent
Mar 1
New
Mar 8
First Quarter
Mar 16
Full
Mar 23
Last Quarter

Hourly Weather History & Observations

Time (EST) Temp. Windchill Dew Point Humidity Pressure Visibility Wind Dir Wind Speed Gust Speed Precip Events Conditions
12:52 AM 36.0 °F 31.1 °F 16.0 °F 44% 29.78 in 10.0 mi West 5.8 mph - N/A   Partly Cloudy
1:52 AM 34.0 °F 29.8 °F 12.9 °F 42% 29.77 in 10.0 mi WSW 4.6 mph - N/A   Clear
2:52 AM 32.0 °F 24.2 °F 9.0 °F 38% 29.77 in 10.0 mi West 9.2 mph - N/A   Clear
3:52 AM 30.9 °F 23.5 °F 9.0 °F 40% 29.76 in 10.0 mi West 8.1 mph 17.3 mph N/A   Clear
4:52 AM 28.9 °F 21.1 °F 7.0 °F 40% 29.78 in 10.0 mi West 8.1 mph - N/A   Clear
5:52 AM 27.0 °F 18.7 °F 9.0 °F 47% 29.81 in 10.0 mi WNW 8.1 mph - N/A   Clear
6:52 AM 25.0 °F 18.1 °F 10.9 °F 55% 29.80 in 10.0 mi West 5.8 mph - N/A   Mostly Cloudy
7:52 AM 26.1 °F 16.8 °F 12.9 °F 58% 29.82 in 10.0 mi WNW 9.2 mph - N/A   Scattered Clouds
8:52 AM 26.1 °F 18.4 °F 12.9 °F 58% 29.81 in 10.0 mi West 6.9 mph - 0.00 in   Scattered Clouds
9:52 AM 25.0 °F 16.3 °F 12.0 °F 58% 29.80 in 4.0 mi WNW 8.1 mph 20.7 mph 0.00 in Snow Light Snow
10:17 AM 26.1 °F 16.8 °F 12.9 °F 58% 29.74 in 5.0 mi West 9.2 mph - 0.00 in Snow Light Snow
10:24 AM 27.0 °F 19.5 °F 10.9 °F 51% 29.74 in 9.0 mi WNW 6.9 mph - 0.00 in   Overcast
10:52 AM 26.1 °F 19.4 °F 10.9 °F 53% 29.79 in 9.0 mi Variable 5.8 mph 16.1 mph 0.00 in   Overcast
11:52 AM 26.1 °F 14.5 °F 8.1 °F 47% 29.78 in 10.0 mi West 13.8 mph 25.3 mph N/A   Overcast
12:04 PM 24.1 °F 13.1 °F 14.0 °F 65% 29.74 in 2.5 mi NW 11.5 mph 24.2 mph 0.00 in Snow Light Snow
12:13 PM 23.0 °F 12.4 °F 15.1 °F 72% 29.74 in 1.5 mi WNW 10.4 mph 21.9 mph 0.00 in Snow Light Snow
12:18 PM 23.0 °F 11.7 °F 16.0 °F 74% 29.74 in 1.0 mi WNW 11.5 mph 21.9 mph 0.00 in Snow Light Snow
12:26 PM 23.0 °F 13.1 °F 15.1 °F 72% 29.73 in 1.5 mi WNW 9.2 mph 18.4 mph 0.00 in Snow Light Snow
12:31 PM 24.1 °F 13.1 °F 15.1 °F 69% 29.73 in 3.0 mi WNW 11.5 mph 16.1 mph 0.00 in Snow Light Snow
12:52 PM 26.1 °F 15.0 °F 12.9 °F 58% 29.77 in 9.0 mi WNW 12.7 mph 20.7 mph 0.00 in   Mostly Cloudy
1:25 PM 24.1 °F 11.5 °F 12.9 °F 62% 29.73 in 1.5 mi NW 15.0 mph 23.0 mph 0.00 in Snow Light Snow
1:27 PM 23.0 °F 11.1 °F 14.0 °F 68% 29.72 in 0.8 mi WNW 12.7 mph 23.0 mph 0.00 in Snow Light Snow
1:35 PM 21.9 °F 9.8 °F 14.0 °F 72% 29.73 in 0.5 mi West 12.7 mph 24.2 mph 0.00 in Snow Snow
1:45 PM 24.1 °F 13.7 °F 14.0 °F 65% 29.72 in 1.8 mi West 10.4 mph 18.4 mph 0.00 in Snow Light Snow
1:52 PM 25.0 °F 13.1 °F 10.9 °F 55% 29.77 in 9.0 mi West 13.8 mph 18.4 mph 0.00 in   Overcast
1:59 PM 24.1 °F 12.5 °F 12.9 °F 62% 29.72 in 2.0 mi WNW 12.7 mph 20.7 mph 0.00 in Snow Light Snow
2:01 PM 23.0 °F 11.7 °F 14.0 °F 68% 29.72 in 1.0 mi NW 11.5 mph 20.7 mph 0.00 in Snow Light Snow
2:04 PM 21.9 °F 11.0 °F 15.1 °F 75% 29.72 in 0.8 mi WNW 10.4 mph 20.7 mph 0.00 in Snow Light Snow
2:10 PM 23.0 °F 14.7 °F 12.9 °F 65% 29.72 in 1.2 mi West 6.9 mph 20.7 mph 0.00 in Snow Light Snow
2:12 PM 23.0 °F 13.9 °F 12.9 °F 65% 29.72 in 4.0 mi West 8.1 mph - 0.00 in Snow Light Snow
2:23 PM 24.1 °F 11.0 °F 12.0 °F 60% 29.73 in 1.5 mi West 16.1 mph 21.9 mph 0.00 in Snow Light Snow
2:25 PM 23.0 °F 10.1 °F 12.0 °F 63% 29.73 in 1.0 mi WNW 15.0 mph 24.2 mph 0.00 in Snow Light Snow
2:28 PM 23.0 °F 11.7 °F 12.0 °F 63% 29.72 in 0.8 mi West 11.5 mph 24.2 mph 0.00 in Snow Light Snow
2:32 PM 24.1 °F 12.0 °F 10.0 °F 55% 29.72 in 1.2 mi West 13.8 mph 24.2 mph 0.00 in Snow Light Snow
2:34 PM 25.0 °F 14.8 °F 10.0 °F 53% 29.72 in 2.5 mi West 10.4 mph 20.7 mph 0.00 in Snow Light Snow
2:41 PM 25.0 °F 12.2 °F 7.0 °F 46% 29.73 in 9.0 mi West 16.1 mph 26.5 mph 0.00 in   Scattered Clouds
2:52 PM 24.1 °F 11.0 °F 6.1 °F 46% 29.78 in 9.0 mi West 16.1 mph 27.6 mph 0.00 in   Scattered Clouds
3:52 PM 24.1 °F 10.6 °F 3.0 °F 40% 29.79 in 10.0 mi WNW 17.3 mph 26.5 mph N/A   Mostly Cloudy
4:52 PM 23.0 °F 9.6 °F 10.0 °F 58% 29.81 in 5.0 mi West 16.1 mph 25.3 mph 0.00 in Snow Light Snow
5:52 PM 21.9 °F 11.0 °F 8.1 °F 55% 29.84 in 10.0 mi WNW 10.4 mph 24.2 mph 0.00 in   Partly Cloudy
6:52 PM 19.9 °F 10.1 °F 5.0 °F 52% 29.87 in 10.0 mi West 8.1 mph 17.3 mph N/A   Clear
7:52 PM 19.9 °F 10.1 °F 3.9 °F 50% 29.89 in 10.0 mi WNW 8.1 mph 21.9 mph N/A   Scattered Clouds
8:52 PM 19.0 °F 6.8 °F 3.9 °F 52% 29.91 in 10.0 mi WNW 11.5 mph - N/A   Partly Cloudy
9:52 PM 18.0 °F 6.9 °F 3.9 °F 54% 29.93 in 10.0 mi WNW 9.2 mph - N/A   Scattered Clouds
10:52 PM 18.0 °F 5.4 °F 5.0 °F 57% 29.94 in 10.0 mi West 11.5 mph 20.7 mph N/A   Scattered Clouds
10:59 PM 18.0 °F 8.7 °F 5.0 °F 57% 29.88 in 10.0 mi Variable 6.9 mph 18.4 mph N/A   Mostly Cloudy
11:17 PM 18.0 °F 12.7 °F 6.1 °F 60% 29.87 in 10.0 mi Variable 3.5 mph - N/A   Mostly Cloudy
11:52 PM 18.0 °F 9.8 °F 5.0 °F 57% 29.94 in 10.0 mi Variable 5.8 mph - N/A   Scattered Clouds